TimeEDT,TemperatureF,Dew PointF,Humidity,Sea Level PressureIn,VisibilityMPH,Wind Direction,Wind SpeedMPH,Gust SpeedMPH,PrecipitationIn,Events,Conditions,WindDirDegrees,DateUTC
12:06 AM,59.0,57.2,94,30.19,1.5,Calm,Calm,-,N/A,,Overcast,0,2012-10-04 04:06:00
12:13 AM,59.0,57.2,94,30.19,2.0,Calm,Calm,-,N/A,,Overcast,0,2012-10-04 04:13:00
12:23 AM,59.0,57.2,94,30.19,5.0,Calm,Calm,-,N/A,,Overcast,0,2012-10-04 04:23:00
12:53 AM,59.0,57.9,96,30.20,6.0,Calm,Calm,-,N/A,,Overcast,0,2012-10-04 04:53:00
1:07 AM,59.0,57.2,94,30.20,6.0,Calm,Calm,-,N/A,,Overcast,0,2012-10-04 05:07:00
1:26 AM,59.0,57.2,94,30.20,6.0,NNE,3.5,-,N/A,,Overcast,30,2012-10-04 05:26:00
1:53 AM,59.0,57.9,96,30.19,5.0,NE,3.5,-,N/A,,Overcast,40,2012-10-04 05:53:00
2:07 AM,59.0,57.2,94,30.19,6.0,NE,4.6,-,N/A,,Overcast,50,2012-10-04 06:07:00
2:19 AM,59.0,57.2,94,30.19,5.0,NE,3.5,-,N/A,,Overcast,50,2012-10-04 06:19:00
2:30 AM,59.0,57.2,94,30.19,7.0,Calm,Calm,-,N/A,,Overcast,0,2012-10-04 06:30:00
2:53 AM,57.9,57.9,100,30.19,6.0,NE,3.5,-,N/A,,Overcast,40,2012-10-04 06:53:00
3:39 AM,57.2,57.2,100,30.18,2.5,NE,4.6,-,N/A,,Overcast,50,2012-10-04 07:39:00
3:53 AM,57.9,57.9,100,30.17,3.0,East,4.6,-,N/A,,Overcast,80,2012-10-04 07:53:00
4:18 AM,57.2,57.2,100,30.18,2.5,NE,3.5,-,N/A,,Overcast,50,2012-10-04 08:18:00
4:24 AM,57.2,57.2,100,30.18,3.0,Calm,Calm,-,N/A,,Overcast,0,2012-10-04 08:24:00
4:42 AM,57.2,57.2,100,30.18,3.0,ENE,3.5,-,0.01,,Overcast,60,2012-10-04 08:42:00
4:53 AM,57.9,57.9,100,30.19,5.0,Calm,Calm,-,0.01,,Overcast,0,2012-10-04 08:53:00
5:03 AM,59.0,57.2,94,30.19,5.0,NNE,3.5,-,N/A,,Overcast,20,2012-10-04 09:03:00
5:21 AM,59.0,57.2,94,30.19,2.5,North,3.5,-,N/A,,Overcast,350,2012-10-04 09:21:00
5:35 AM,59.0,57.2,94,30.19,1.0,North,3.5,-,N/A,,Overcast,10,2012-10-04 09:35:00
5:51 AM,57.2,57.2,100,30.19,2.0,Calm,Calm,-,N/A,,Overcast,0,2012-10-04 09:51:00
5:53 AM,57.9,57.9,100,30.19,3.0,Calm,Calm,-,N/A,,Overcast,0,2012-10-04 09:53:00
6:15 AM,59.0,57.2,94,30.20,2.5,Calm,Calm,-,N/A,,Overcast,0,2012-10-04 10:15:00
6:43 AM,57.2,57.2,100,30.19,3.0,NE,4.6,-,N/A,,Overcast,40,2012-10-04 10:43:00
6:53 AM,57.9,57.9,100,30.19,3.0,ENE,4.6,-,N/A,,Overcast,60,2012-10-04 10:53:00
7:02 AM,57.2,57.2,100,30.19,2.0,NE,3.5,-,N/A,,Overcast,50,2012-10-04 11:02:00
7:09 AM,57.2,57.2,100,30.20,1.2,NE,3.5,-,N/A,,Overcast,50,2012-10-04 11:09:00
7:30 AM,59.0,57.2,94,30.20,3.0,Calm,Calm,-,N/A,,Overcast,0,2012-10-04 11:30:00
7:42 AM,59.0,57.2,94,30.19,2.5,NNE,4.6,-,N/A,,Overcast,30,2012-10-04 11:42:00
7:53 AM,59.0,57.9,96,30.19,2.5,NNE,4.6,-,N/A,,Overcast,20,2012-10-04 11:53:00
7:55 AM,59.0,57.2,94,30.19,3.0,NNE,3.5,-,N/A,,Overcast,30,2012-10-04 11:55:00
8:27 AM,59.0,57.2,94,30.20,5.0,North,3.5,-,N/A,,Overcast,10,2012-10-04 12:27:00
8:53 AM,59.0,57.9,96,30.20,8.0,ENE,4.6,-,N/A,,Overcast,60,2012-10-04 12:53:00
9:41 AM,59.0,57.2,94,30.19,8.0,ENE,3.5,-,N/A,,Overcast,60,2012-10-04 13:41:00
9:53 AM,59.0,57.9,96,30.18,10.0,NE,5.8,-,N/A,,Overcast,50,2012-10-04 13:53:00
10:53 AM,60.1,57.0,90,30.19,10.0,North,4.6,-,N/A,,Overcast,10,2012-10-04 14:53:00
11:17 AM,59.0,55.4,88,30.18,10.0,NNE,4.6,-,N/A,,Overcast,30,2012-10-04 15:17:00
11:53 AM,59.0,57.0,93,30.17,10.0,ENE,4.6,-,N/A,,Overcast,60,2012-10-04 15:53:00
12:32 PM,59.0,55.4,88,30.16,10.0,Calm,Calm,-,N/A,,Overcast,0,2012-10-04 16:32:00
12:53 PM,59.0,57.0,93,30.17,10.0,Calm,Calm,-,N/A,,Overcast,0,2012-10-04 16:53:00
1:22 PM,59.0,55.4,88,30.14,10.0,ENE,3.5,-,N/A,,Overcast,70,2012-10-04 17:22:00
1:53 PM,57.9,55.9,93,30.14,9.0,ENE,4.6,-,0.00,,Overcast,70,2012-10-04 17:53:00
2:49 PM,57.2,55.4,94,30.11,10.0,ENE,3.5,-,N/A,,Overcast,60,2012-10-04 18:49:00
2:53 PM,57.9,55.9,93,30.12,10.0,ENE,4.6,-,N/A,,Overcast,70,2012-10-04 18:53:00
3:17 PM,57.2,55.4,94,30.11,10.0,East,3.5,-,N/A,,Overcast,90,2012-10-04 19:17:00
3:25 PM,57.2,55.4,94,30.11,7.0,East,4.6,-,0.00,Rain,Light Rain,100,2012-10-04 19:25:00
3:53 PM,57.0,55.9,96,30.11,4.0,East,4.6,-,0.02,Rain,Light Rain,100,2012-10-04 19:53:00
4:03 PM,57.2,55.4,94,30.10,4.0,ESE,4.6,-,0.01,Rain,Light Rain,110,2012-10-04 20:03:00
4:53 PM,57.0,55.9,96,30.11,7.0,ESE,3.5,-,0.06,Rain,Light Rain,110,2012-10-04 20:53:00
5:30 PM,57.2,55.4,94,30.08,5.0,East,5.8,-,0.01,Rain,Light Rain,100,2012-10-04 21:30:00
5:37 PM,57.2,55.4,94,30.08,5.0,East,6.9,-,0.02,Rain,Light Rain,90,2012-10-04 21:37:00
5:53 PM,57.0,55.9,96,30.06,4.0,East,6.9,-,0.03,Rain,Light Rain,80,2012-10-04 21:53:00
6:26 PM,57.2,55.4,94,30.07,9.0,SSE,5.8,-,0.01,Rain,Light Rain,160,2012-10-04 22:26:00
6:53 PM,55.9,55.0,97,30.09,10.0,South,3.5,-,0.01,,Overcast,170,2012-10-04 22:53:00
7:53 PM,55.9,55.0,97,30.07,8.0,SE,4.6,-,N/A,,Overcast,140,2012-10-04 23:53:00
8:53 PM,55.4,55.4,100,30.06,8.0,SSE,4.6,-,N/A,,Overcast,160,2012-10-05 00:53:00
9:53 PM,55.9,55.0,97,30.06,5.0,South,3.5,-,N/A,,Overcast,170,2012-10-05 01:53:00
10:05 PM,55.4,55.4,100,30.06,1.8,SSE,4.6,-,N/A,,Overcast,160,2012-10-05 02:05:00
10:17 PM,55.4,55.4,100,30.06,0.5,South,3.5,-,N/A,Fog,Fog,170,2012-10-05 02:17:00
10:44 PM,55.4,55.4,100,30.04,0.2,SSE,5.8,-,N/A,Fog,Fog,150,2012-10-05 02:44:00
10:53 PM,55.9,55.0,97,30.05,0.2,South,4.6,-,N/A,Fog,Fog,170,2012-10-05 02:53:00
11:53 PM,55.9,55.0,97,30.04,0.2,Calm,Calm,-,N/A,Fog,Fog,0,2012-10-05 03:53:00
11:56 PM,55.4,55.4,100,30.03,0.5,South,3.5,-,N/A,Fog,Fog,180,2012-10-05 03:56:00